| time (UTC) | temp F | wind direction | speed MPH | gust MPH | rain 1hr in | rain 24hr in | rain mn in | humidity % | barometer mb |
| 20260505185516 | 58 | 52 | 3.0 | 8.0 | 0.00 | 0.00 | 0.00 | 70 | 1015.8 |
| 20260505184536 | 58 | 320 | 1.0 | 7.0 | 0.00 | 0.00 | 0.00 | 68 | 1015.8 |
| 20260505183516 | 58 | 292 | 1.0 | 5.0 | 0.00 | 0.00 | 0.00 | 69 | 1015.8 |
| 20260505182515 | 58 | 317 | 1.0 | 5.0 | 0.00 | 0.00 | 0.00 | 68 | 1015.8 |
| 20260505181536 | 58 | 302 | 1.0 | 4.0 | 0.00 | 0.00 | 0.00 | 68 | 1015.8 |
| 20260505180515 | 57 | 27 | 1.0 | 3.0 | 0.00 | 0.00 | 0.00 | 69 | 1015.7 |
| 20260505175515 | 58 | 331 | 1.0 | 4.0 | 0.00 | 0.00 | 0.00 | 68 | 1015.7 |
| 20260505174515 | 58 | 280 | 1.0 | 4.0 | 0.00 | 0.00 | 0.00 | 68 | 1015.4 |
| 20260505173517 | 57 | 0.0 | 1.0 | 0.00 | 0.00 | 0.00 | 69 | 1015.4 | |
| 20260505172515 | 57 | 45 | 0.0 | 3.0 | 0.00 | 0.00 | 0.00 | 69 | 1015.4 |
| 20260505171516 | 57 | 84 | 1.0 | 3.0 | 0.00 | 0.00 | 0.00 | 69 | 1015.4 |
| 20260505170516 | 57 | 30 | 0.0 | 3.0 | 0.00 | 0.00 | 0.00 | 69 | 1015.4 |
| 20260505165515 | 57 | 30 | 0.0 | 3.0 | 0.00 | 0.00 | 0.00 | 70 | 1015.4 |
| 20260505164517 | 57 | 355 | 0.0 | 3.0 | 0.00 | 0.00 | 0.00 | 70 | 1015.3 |
| 20260505163515 | 56 | 355 | 0.0 | 2.0 | 0.00 | 0.00 | 0.00 | 71 | 1015.2 |
| 20260505162515 | 56 | 294 | 1.0 | 4.0 | 0.00 | 0.00 | 0.00 | 71 | 1015.1 |
| 20260505161536 | 56 | 253 | 0.0 | 2.0 | 0.00 | 0.00 | 0.00 | 71 | 1015.1 |
| 20260505160515 | 55 | 0.0 | 2.0 | 0.00 | 0.00 | 0.00 | 72 | 1015.1 | |
| 20260505152515 | 55 | 0.0 | 1.0 | 0.00 | 0.00 | 0.00 | 73 | 1014.8 | |
| 20260505151555 | 54 | 0.0 | 0.0 | 0.00 | 0.00 | 0.00 | 74 | 1014.8 | |
| 20260505150535 | 54 | 0.0 | 1.0 | 0.00 | 0.00 | 0.00 | 74 | 1014.8 | |
| 20260505140515 | 53 | 287 | 0.0 | 3.0 | 0.00 | 0.00 | 0.00 | 76 | 1014.4 |
| 20260505124515 | 53 | 0.0 | 0.0 | 0.00 | 0.00 | 0.00 | 74 | 1014.2 | |
| 20260505123516 | 53 | 0.0 | 0.0 | 0.00 | 0.00 | 0.00 | 74 | 1014.3 | |
| 20260505122515 | 53 | 0.0 | 2.0 | 0.00 | 0.00 | 0.00 | 73 | 1014.3 | |
| 20260505121515 | 53 | 0.0 | 0.0 | 0.00 | 0.00 | 0.00 | 74 | 1014.5 | |
| 20260505120515 | 53 | 0.0 | 0.0 | 0.00 | 0.00 | 0.00 | 73 | 1014.5 | |
| 20260505115555 | 53 | 0.0 | 2.0 | 0.00 | 0.00 | 0.00 | 73 | 1014.5 | |
| 20260505114515 | 53 | 0.0 | 0.0 | 0.00 | 0.00 | 0.00 | 72 | 1014.5 | |
| 20260505113515 | 53 | 0.0 | 0.0 | 0.00 | 0.00 | 0.00 | 72 | 1014.5 | |
| 20260505112556 | 53 | 0.0 | 0.0 | 0.00 | 0.00 | 0.00 | 71 | 1014.4 | |
| 20260505111516 | 53 | 0.0 | 0.0 | 0.00 | 0.00 | 0.00 | 71 | 1014.4 | |
| 20260505110517 | 53 | 0.0 | 0.0 | 0.00 | 0.00 | 0.00 | 71 | 1014.4 | |
| 20260505101516 | 54 | 257 | 1.0 | 4.0 | 0.00 | 0.00 | 0.00 | 71 | 1014.4 |
| 20260505100515 | 54 | 264 | 0.0 | 1.0 | 0.00 | 0.00 | 0.00 | 71 | 1014.5 |
| 20260505095515 | 54 | 0.0 | 0.0 | 0.00 | 0.00 | 0.00 | 70 | 1014.4 | |
| 20260505094515 | 54 | 263 | 0.0 | 2.0 | 0.00 | 0.00 | 0.00 | 69 | 1014.5 |
| 20260505093515 | 54 | 273 | 0.0 | 3.0 | 0.00 | 0.00 | 0.00 | 69 | 1014.6 |
| 20260505092516 | 54 | 259 | 0.0 | 3.0 | 0.00 | 0.00 | 0.00 | 68 | 1014.5 |
| 20260505091515 | 54 | 250 | 1.0 | 4.0 | 0.00 | 0.00 | 0.00 | 68 | 1014.7 |
| 20260505090515 | 54 | 308 | 0.0 | 6.0 | 0.00 | 0.00 | 0.00 | 69 | 1014.9 |
| 20260505085515 | 55 | 295 | 1.0 | 3.0 | 0.00 | 0.00 | 0.00 | 69 | 1015.0 |
| 20260505084515 | 55 | 272 | 1.0 | 6.0 | 0.00 | 0.00 | 0.00 | 69 | 1015.1 |
| 20260505083515 | 55 | 272 | 1.0 | 4.0 | 0.00 | 0.00 | 0.00 | 70 | 1015.1 |
| 20260505082516 | 55 | 296 | 1.0 | 6.0 | 0.00 | 0.00 | 0.00 | 71 | 1015.0 |
| 20260505081516 | 55 | 293 | 2.0 | 5.0 | 0.00 | 0.00 | 0.00 | 73 | 1015.0 |
| 20260505080515 | 55 | 267 | 1.0 | 5.0 | 0.00 | 0.00 | 0.00 | 76 | 1015.1 |
| 20260505075515 | 55 | 260 | 1.0 | 4.0 | 0.00 | 0.00 | 0.00 | 78 | 1015.2 |
| 20260505074516 | 55 | 244 | 1.0 | 4.0 | 0.00 | 0.00 | 0.00 | 77 | 1015.1 |
| 20260505073514 | 55 | 294 | 0.0 | 1.0 | 0.00 | 0.00 | 0.00 | 77 | 1015.1 |
| 20260505072515 | 55 | 0.0 | 0.0 | 0.00 | 0.00 | 0.00 | 76 | 1015.0 | |
| 20260505071514 | 55 | 0.0 | 0.0 | 0.00 | 0.00 | 0.00 | 76 | 1014.9 | |
| 20260505070535 | 55 | 296 | 0.0 | 3.0 | 0.00 | 0.00 | 0.00 | 76 | 1014.7 |
| 20260505065536 | 55 | 300 | 0.0 | 2.0 | 0.00 | 0.00 | 0.00 | 76 | 1014.8 |
| 20260505064517 | 55 | 0.0 | 0.0 | 0.00 | 0.00 | 0.00 | 76 | 1014.8 | |
| 20260505063537 | 55 | 0.0 | 0.0 | 0.00 | 0.00 | 0.00 | 76 | 1014.8 | |
| 20260505062516 | 55 | 0.0 | 0.0 | 0.00 | 0.00 | 0.00 | 75 | 1014.7 | |
| 20260505061516 | 56 | 0.0 | 0.0 | 0.00 | 0.00 | 0.00 | 74 | 1014.6 | |
| 20260505060517 | 56 | 0.0 | 0.0 | 0.00 | 0.00 | 0.00 | 73 | 1014.6 | |
| 20260505055516 | 56 | 0.0 | 2.0 | 0.00 | 0.00 | 0.00 | 74 | 1014.7 | |
| 20260505054516 | 56 | 317 | 1.0 | 3.0 | 0.00 | 0.00 | 0.00 | 73 | 1014.9 |
| 20260505053516 | 57 | 294 | 1.0 | 8.0 | 0.00 | 0.00 | 0.00 | 73 | 1015.1 |
| 20260505052516 | 57 | 318 | 1.0 | 6.0 | 0.00 | 0.00 | 0.00 | 72 | 1015.2 |
| 20260505051516 | 57 | 305 | 0.0 | 8.0 | 0.00 | 0.00 | 0.00 | 72 | 1015.2 |
| 20260505050516 | 57 | 307 | 2.0 | 7.0 | 0.00 | 0.00 | 0.00 | 71 | 1015.1 |
| 20260505041516 | 58 | 307 | 2.0 | 6.0 | 0.00 | 0.00 | 0.00 | 69 | 1014.5 |
| 20260505040516 | 58 | 291 | 1.0 | 5.0 | 0.00 | 0.00 | 0.00 | 70 | 1014.5 |
| 20260505035517 | 59 | 283 | 1.0 | 4.0 | 0.00 | 0.00 | 0.00 | 68 | 1014.3 |
| 20260505034557 | 59 | 332 | 0.0 | 4.0 | 0.00 | 0.00 | 0.00 | 67 | 1014.1 |
| 20260505033515 | 59 | 303 | 0.0 | 4.0 | 0.00 | 0.00 | 0.00 | 66 | 1013.9 |
| 20260505032516 | 59 | 303 | 1.0 | 4.0 | 0.00 | 0.00 | 0.00 | 67 | 1013.8 |
| 20260505031516 | 59 | 305 | 1.0 | 4.0 | 0.00 | 0.00 | 0.00 | 67 | 1013.7 |
| 20260505030516 | 59 | 270 | 1.0 | 7.0 | 0.00 | 0.00 | 0.00 | 67 | 1013.9 |
| 20260505025557 | 59 | 302 | 2.0 | 7.0 | 0.00 | 0.00 | 0.00 | 66 | 1013.9 |
| 20260505024557 | 60 | 288 | 1.0 | 7.0 | 0.00 | 0.00 | 0.00 | 65 | 1013.9 |
| 20260505023516 | 60 | 307 | 2.0 | 7.0 | 0.00 | 0.00 | 0.00 | 64 | 1013.8 |
| 20260505022536 | 60 | 310 | 2.0 | 5.0 | 0.00 | 0.00 | 0.00 | 63 | 1013.7 |
| 20260505021515 | 60 | 322 | 1.0 | 5.0 | 0.00 | 0.00 | 0.00 | 62 | 1013.6 |
| 20260505020536 | 61 | 328 | 1.0 | 8.0 | 0.00 | 0.00 | 0.00 | 61 | 1013.6 |
| 20260505015516 | 61 | 298 | 1.0 | 5.0 | 0.00 | 0.00 | 0.00 | 60 | 1013.5 |
| 20260505014516 | 61 | 321 | 1.0 | 5.0 | 0.00 | 0.00 | 0.00 | 60 | 1013.5 |
| 20260505013516 | 61 | 317 | 2.0 | 6.0 | 0.00 | 0.00 | 0.00 | 61 | 1013.6 |
| 20260505012515 | 61 | 333 | 1.0 | 6.0 | 0.00 | 0.00 | 0.00 | 62 | 1013.7 |
| 20260505011517 | 61 | 307 | 1.0 | 6.0 | 0.00 | 0.00 | 0.00 | 62 | 1013.9 |
| 20260505010515 | 62 | 304 | 1.0 | 4.0 | 0.00 | 0.00 | 0.00 | 62 | 1013.9 |
| 20260505005515 | 62 | 284 | 1.0 | 7.0 | 0.00 | 0.00 | 0.00 | 62 | 1014.0 |
| 20260505004516 | 62 | 289 | 1.0 | 5.0 | 0.00 | 0.00 | 0.00 | 61 | 1014.0 |
| 20260505003537 | 62 | 296 | 2.0 | 8.0 | 0.00 | 0.00 | 0.00 | 61 | 1014.0 |
| 20260505002517 | 63 | 322 | 2.0 | 10.0 | 0.00 | 0.00 | 0.00 | 60 | 1014.0 |
| 20260505001515 | 63 | 296 | 1.0 | 9.0 | 0.00 | 0.00 | 0.00 | 59 | 1013.9 |
| 20260505000515 | 63 | 321 | 3.0 | 9.0 | 0.00 | 0.00 | 0.00 | 59 | 1013.9 |
| 20260504235535 | 63 | 301 | 3.0 | 10.0 | 0.00 | 0.00 | 0.00 | 59 | 1013.7 |
| 20260504234536 | 64 | 301 | 3.0 | 10.0 | 0.00 | 0.00 | 0.00 | 59 | 1013.6 |
| 20260504233517 | 64 | 298 | 3.0 | 11.0 | 0.00 | 0.00 | 0.00 | 59 | 1013.7 |
| 20260504232516 | 64 | 310 | 2.0 | 8.0 | 0.00 | 0.00 | 0.00 | 59 | 1013.8 |
| 20260504231515 | 63 | 318 | 1.0 | 4.0 | 0.00 | 0.00 | 0.00 | 59 | 1013.8 |
| 20260504230516 | 63 | 300 | 0.0 | 2.0 | 0.00 | 0.00 | 0.00 | 59 | 1013.8 |
| 20260504225515 | 63 | 228 | 1.0 | 4.0 | 0.00 | 0.00 | 0.00 | 58 | 1013.8 |
| 20260504224516 | 64 | 241 | 1.0 | 5.0 | 0.00 | 0.00 | 0.00 | 58 | 1013.8 |
| 20260504223516 | 64 | 229 | 1.0 | 9.0 | 0.00 | 0.00 | 0.00 | 58 | 1013.8 |
| 20260504222515 | 64 | 253 | 1.0 | 5.0 | 0.00 | 0.00 | 0.00 | 59 | 1013.9 |
| 20260504221536 | 64 | 257 | 2.0 | 7.0 | 0.00 | 0.00 | 0.00 | 59 | 1014.0 |
| 20260504220516 | 64 | 305 | 3.0 | 8.0 | 0.00 | 0.00 | 0.00 | 58 | 1014.0 |
| 20260504215515 | 64 | 306 | 2.0 | 8.0 | 0.00 | 0.00 | 0.00 | 57 | 1014.1 |
| 20260504214516 | 65 | 318 | 1.0 | 7.0 | 0.00 | 0.00 | 0.00 | 56 | 1014.1 |
| 20260504213515 | 64 | 320 | 1.0 | 5.0 | 0.00 | 0.00 | 0.00 | 55 | 1014.2 |
| 20260504212536 | 64 | 324 | 2.0 | 8.0 | 0.00 | 0.00 | 0.00 | 56 | 1014.2 |
| 20260504211515 | 64 | 266 | 2.0 | 5.0 | 0.00 | 0.00 | 0.00 | 55 | 1014.2 |
| 20260504210535 | 65 | 351 | 3.0 | 9.0 | 0.00 | 0.00 | 0.00 | 54 | 1014.2 |
| 20260504205515 | 65 | 279 | 2.0 | 7.0 | 0.00 | 0.00 | 0.00 | 53 | 1014.3 |
| 20260504204515 | 65 | 314 | 2.0 | 9.0 | 0.00 | 0.00 | 0.00 | 52 | 1014.3 |
| 20260504203515 | 65 | 283 | 3.0 | 7.0 | 0.00 | 0.00 | 0.00 | 51 | 1014.3 |
| 20260504202537 | 65 | 276 | 3.0 | 8.0 | 0.00 | 0.00 | 0.00 | 53 | 1014.3 |
| 20260504201516 | 64 | 304 | 2.0 | 8.0 | 0.00 | 0.00 | 0.00 | 54 | 1014.4 |
| 20260504200515 | 64 | 202 | 1.0 | 5.0 | 0.00 | 0.00 | 0.00 | 54 | 1014.4 |
| 20260504195516 | 64 | 243 | 1.0 | 4.0 | 0.00 | 0.00 | 0.00 | 52 | 1014.5 |
| 20260504194535 | 64 | 326 | 2.0 | 4.0 | 0.00 | 0.00 | 0.00 | 52 | 1014.5 |
| 20260504193516 | 64 | 278 | 1.0 | 6.0 | 0.00 | 0.00 | 0.00 | 53 | 1014.5 |
| 20260504192515 | 64 | 294 | 1.0 | 5.0 | 0.00 | 0.00 | 0.00 | 53 | 1014.4 |
| 20260504191516 | 64 | 200 | 1.0 | 4.0 | 0.00 | 0.00 | 0.00 | 53 | 1014.6 |
| 20260504190515 | 63 | 98 | 2.0 | 5.0 | 0.00 | 0.00 | 0.00 | 53 | 1014.6 |